HULIANWANG DIGUI-41 (65044 NORAD) Tracking and Keplerian Element Data

This shows tracking and keplerian element data for the satellite.

Feedback or suggestion? Click here.




ElementValue
Catalog65044
NameHULIANWANG DIGUI-41
Epoch Orbit1953
Epoch Day354.08074661
Epoch Year2025
RAAN188.3129
Inclination49.9981
Eccentricity6.53E-05
Argument of Perigee118.4858
Mean Anonmoly241.608
Mean Motion13.29325614
Decay Rate-9.4E-07
L11 65044U 25162B 25354.08074661 -.00000094 00000+0 64855-4 0 9991
L22 65044 49.9981 188.3129 0000653 118.4858 241.6080 13.29325614 19537



Live tracking and technical data element details for HULIANWANG DIGUI-41 (NORAD 65044). HULIANWANG DIGUI-41 can be tracked NOW for your location showing map with azimuth and elevation plus other details from your city location.







IsCatalogInMostPopularTable: catalog: 65044, numindb: 10
Update: records affected: 1



GetName: 65044 HULIANWANG DIGUI-41

Hit Count: updated at: Mon, 20 Apr 2026 09:55:44 GMT